Weather History for Jaffrey, NH

Change the Weather History Date:

Saturday, October 8, 2011

  Actual Average Record
Temperature  
Mean Temperature 60 °F -  
Max Temperature 77 °F 59 °F 77 °F (2011)
Min Temperature 44 °F 38 °F 27 °F (1999)
Degree Days  
Heating Degree Days 4    
Growing Degree Days 10 (Base 50)    
Moisture  
Dew Point 47 °F    
Average Humidity 71    
Maximum Humidity 97    
Minimum Humidity 32    
Precipitation  
Precipitation 0.00 in - - ()
Sea Level Pressure  
Sea Level Pressure 30.43 in    
Wind  
Wind Speed 4 mph (South)    
Max Wind Speed 7 mph    
Max Gust Speed -    
Visibility 10 miles    
Events      
Averages and records for this station are not official NWS values.
T = Trace of Precipitation, MM = Missing Value Source: NWS Daily Summary

Daily Weather History Graph

Daily Weather History Graph

Search for Another Location

Airport:

Trip Planner

Search our weather history database for the weather conditions in past years. The results will help you decide how hot, cold, wet, or windy it might be!

Date:

Astronomy

Oct. 08, 2011 Rise Set
Actual Time 6:52 AM EDT 6:17 PM EDT
Civil Twilight 6:24 AM EDT 6:45 PM EDT
Nautical Twilight 5:51 AM EDT 7:18 PM EDT
Astronomical Twilight 5:18 AM EDT 7:51 PM EDT
Moon 4:29 PM EDT (10/8) 3:33 AM EDT (10/8)
Length of Visible Light 12h 21m
Length of Day
11h 24m
Waxing Gibbous, 90% of the Moon is Illuminated
Oct 8
Waxing Gibbous
Oct 11
Full
Oct 19
Last Quarter
Oct 26
New
Nov 2
First Quarter

Hourly Weather History & Observations

Time (EDT) Temp. Windchill Dew Point Humidity Pressure Visibility Wind Dir Wind Speed Gust Speed Precip Events Conditions
12:52 AM 46.9 °F - 41.0 °F 80% 30.43 in 10.0 mi South 5.8 mph - N/A   Clear
1:52 AM 48.0 °F - 42.1 °F 80% 30.44 in 10.0 mi South 5.8 mph - N/A   Clear
2:52 AM 46.9 °F - 42.1 °F 83% 30.43 in 10.0 mi South 4.6 mph - N/A   Clear
3:52 AM 46.0 °F 43.9 °F 41.0 °F 83% 30.43 in 10.0 mi South 4.6 mph - N/A   Clear
4:52 AM 46.0 °F 42.5 °F 41.0 °F 83% 30.43 in 10.0 mi South 6.9 mph - N/A   Clear
5:52 AM 46.0 °F 43.1 °F 41.0 °F 83% 30.45 in 10.0 mi South 5.8 mph - N/A   Clear
6:52 AM 44.1 °F 41.5 °F 41.0 °F 89% 30.46 in 10.0 mi South 4.6 mph - N/A   Clear
7:52 AM 48.0 °F - 43.0 °F 83% 30.46 in 10.0 mi SSE 4.6 mph - N/A   Clear
8:52 AM 54.0 °F - 45.0 °F 72% 30.48 in 10.0 mi South 3.5 mph - N/A   Clear
9:52 AM 60.1 °F - 46.0 °F 60% 30.49 in 10.0 mi Calm Calm - N/A   Clear
10:52 AM 66.0 °F - 46.0 °F 48% 30.48 in 10.0 mi Calm Calm - N/A   Clear
11:52 AM 72.0 °F - 46.0 °F 40% 30.46 in 10.0 mi Calm Calm - N/A   Clear
12:52 PM 73.0 °F - 46.9 °F 39% 30.44 in 10.0 mi Calm Calm - N/A   Clear
2:52 PM 77.0 °F - 45.0 °F 32% 30.41 in 10.0 mi West 3.5 mph - N/A   Clear
3:52 PM 77.0 °F - 46.0 °F 33% 30.40 in 10.0 mi Variable 3.5 mph - N/A   Clear
4:52 PM 75.0 °F - 48.9 °F 40% 30.39 in 10.0 mi West 5.8 mph - N/A   Clear
5:52 PM 70.0 °F - 53.1 °F 55% 30.40 in 10.0 mi Calm Calm - N/A   Clear
6:52 PM 61.0 °F - 55.0 °F 81% 30.42 in 10.0 mi SSE 3.5 mph - N/A   Clear
7:52 PM 57.0 °F - 54.0 °F 89% 30.43 in 10.0 mi Calm Calm - N/A   Clear
8:52 PM 54.0 °F - 53.1 °F 97% 30.42 in 9.0 mi South 6.9 mph - N/A   Clear
9:52 PM 53.1 °F - 52.0 °F 96% 30.41 in 9.0 mi South 5.8 mph - N/A   Clear
10:52 PM 54.0 °F - 51.1 °F 90% 30.40 in 10.0 mi South 5.8 mph - N/A   Clear
11:52 PM 51.1 °F - 50.0 °F 96% 30.39 in 10.0 mi South 5.8 mph - N/A   Clear